Time,TemperatureF,DewpointF,PressureIn,WindDirection,WindDirectionDegrees,WindSpeedMPH,WindSpeedGustMPH,Humidity,HourlyPrecipIn,Conditions,Clouds,dailyrainin,SoftwareType,DateUTC
2013-03-19 00:01:00,36.6,32.8,29.28,South,176,0.0,2.0,86,0.00,RA,,0.00,WeatherDisplay:10.37,2013-03-19 00:01:00,
2013-03-19 00:16:00,36.7,32.9,29.29,ESE,109,0.0,3.0,86,0.00,SCT,,0.00,WeatherDisplay:10.37,2013-03-19 00:16:00,
2013-03-19 01:01:00,35.6,32.1,29.28,ENE,74,0.0,4.0,87,0.00,SCT,,0.00,WeatherDisplay:10.37,2013-03-19 01:01:00,
2013-03-19 01:31:00,35.2,32.0,29.29,SE,136,0.0,4.0,88,0.00,SCT,,0.00,WeatherDisplay:10.37,2013-03-19 01:31:00,
2013-03-19 01:46:00,35.8,32.6,29.29,East,80,0.0,4.0,88,0.00,SCT,,0.00,WeatherDisplay:10.37,2013-03-19 01:46:00,
2013-03-19 02:01:00,36.0,32.8,29.29,South,170,3.0,4.0,88,0.00,SCT,,0.00,WeatherDisplay:10.37,2013-03-19 02:01:00,
2013-03-19 03:16:00,36.7,33.7,29.29,South,169,2.0,4.0,89,0.00,FEW,,0.00,WeatherDisplay:10.37,2013-03-19 03:16:00,
2013-03-19 03:31:00,36.6,33.7,29.29,South,178,1.0,5.0,89,0.00,FEW,,0.00,WeatherDisplay:10.37,2013-03-19 03:31:00,
2013-03-19 04:01:00,37.4,34.7,29.29,NW,322,6.0,11.0,90,0.00,FEW,,0.00,WeatherDisplay:10.37,2013-03-19 04:01:00,
2013-03-19 04:31:00,38.3,35.7,29.28,SSE,152,3.0,10.0,90,0.00,FEW,,0.00,WeatherDisplay:10.37,2013-03-19 04:31:00,
2013-03-19 04:46:00,38.1,35.4,29.29,ENE,72,0.0,6.0,90,0.00,FEW,,0.00,WeatherDisplay:10.37,2013-03-19 04:46:00,
2013-03-19 05:01:00,37.6,34.9,29.29,ESE,122,3.0,7.0,90,0.00,FEW,,0.00,WeatherDisplay:10.37,2013-03-19 05:01:00,
2013-03-19 05:16:00,37.2,34.6,29.30,East,92,0.0,5.0,90,0.00,SCT,,0.00,WeatherDisplay:10.37,2013-03-19 05:16:00,
2013-03-19 05:31:00,36.9,34.2,29.29,ESE,105,0.0,6.0,90,0.00,SCT,,0.00,WeatherDisplay:10.37,2013-03-19 05:31:00,
2013-03-19 06:31:00,36.3,33.7,29.30,SE,134,1.0,5.0,90,0.00,SCT,,0.00,WeatherDisplay:10.37,2013-03-19 06:31:00,
2013-03-19 06:46:00,36.3,33.7,29.31,SE,125,5.0,5.0,90,0.00,SCT,,0.00,WeatherDisplay:10.37,2013-03-19 06:46:00,
2013-03-19 07:01:00,36.1,33.5,29.30,ESE,112,2.0,5.0,90,0.00,SCT,,0.00,WeatherDisplay:10.37,2013-03-19 07:01:00,
2013-03-19 07:16:00,36.4,33.8,29.30,East,82,1.0,5.0,90,0.00,BKN,,0.00,WeatherDisplay:10.37,2013-03-19 07:16:00,
2013-03-19 07:31:00,36.7,34.3,29.30,ESE,109,2.0,3.0,91,0.00,BKN,,0.00,WeatherDisplay:10.37,2013-03-19 07:31:00,
2013-03-19 07:46:00,37.6,35.2,29.30,ESE,116,3.0,5.0,91,0.00,BKN,,0.00,WeatherDisplay:10.37,2013-03-19 07:46:00,
2013-03-19 08:01:00,39.0,36.9,29.30,SE,137,0.0,5.0,92,0.00,BKN,,0.00,WeatherDisplay:10.37,2013-03-19 08:01:00,
2013-03-19 08:16:00,40.3,37.9,29.30,East,101,0.0,3.0,91,0.00,BKN,,0.00,WeatherDisplay:10.37,2013-03-19 08:16:00,
2013-03-19 08:31:00,41.7,39.6,29.30,SE,136,0.0,4.0,92,0.00,BKN,,0.00,WeatherDisplay:10.37,2013-03-19 08:31:00,
2013-03-19 09:16:00,45.0,42.2,29.31,SE,125,2.0,5.0,90,0.00,SCT,,0.00,WeatherDisplay:10.37,2013-03-19 09:16:00,
2013-03-19 09:46:00,46.3,42.9,29.31,ENE,63,0.0,3.0,88,0.00,SCT,,0.00,WeatherDisplay:10.37,2013-03-19 09:46:00,
2013-03-19 10:16:00,47.5,43.5,29.30,NW,312,1.0,2.0,86,0.02,SCT,,0.02,WeatherDisplay:10.37,2013-03-19 10:16:00,
2013-03-19 10:31:00,48.0,43.7,29.30,NNW,339,1.0,5.0,85,0.02,SCT,,0.02,WeatherDisplay:10.37,2013-03-19 10:31:00,
2013-03-19 10:46:00,48.5,43.9,29.30,NNW,336,1.0,5.0,84,0.02,SCT,,0.02,WeatherDisplay:10.37,2013-03-19 10:46:00,
2013-03-19 11:01:00,48.8,43.9,29.31,NNW,332,2.0,5.0,83,0.00,SCT,,0.02,WeatherDisplay:10.37,2013-03-19 11:01:00,
2013-03-19 11:46:00,47.3,41.7,29.31,NNW,340,1.0,5.0,81,0.00,BKN,,0.02,WeatherDisplay:10.37,2013-03-19 11:46:00,
2013-03-19 12:31:00,50.2,43.6,29.31,NNW,336,6.0,6.0,78,0.00,BKN,,0.02,WeatherDisplay:10.37,2013-03-19 12:31:00,
2013-03-19 12:46:00,50.7,43.8,29.31,NNW,336,2.0,8.0,77,0.00,BKN,,0.02,WeatherDisplay:10.37,2013-03-19 12:46:00,
2013-03-19 13:01:00,51.9,44.6,29.31,NNW,344,5.0,7.0,76,0.00,BKN,,0.02,WeatherDisplay:10.37,2013-03-19 13:01:00,
2013-03-19 13:16:00,52.7,44.6,29.31,NNW,343,2.0,8.0,74,0.00,BKN,,0.02,WeatherDisplay:10.37,2013-03-19 13:16:00,
2013-03-19 13:31:00,52.5,43.8,29.31,NNW,338,5.0,9.0,72,0.00,BKN,,0.02,WeatherDisplay:10.37,2013-03-19 13:31:00,
2013-03-19 13:46:00,51.5,42.4,29.30,NNW,334,3.0,8.0,71,0.00,BKN,,0.02,WeatherDisplay:10.37,2013-03-19 13:46:00,
2013-03-19 14:01:00,50.2,41.1,29.30,NNW,328,2.0,7.0,71,0.00,BKN,,0.02,WeatherDisplay:10.37,2013-03-19 14:01:00,
2013-03-19 14:31:00,47.3,38.7,29.30,WSW,251,3.0,7.0,72,0.00,BKN,,0.02,WeatherDisplay:10.37,2013-03-19 14:31:00,
2013-03-19 14:46:00,46.2,38.0,29.30,WSW,244,3.0,7.0,73,0.00,BKN,,0.02,WeatherDisplay:10.37,2013-03-19 14:46:00,
2013-03-19 15:01:00,45.4,37.6,29.30,WSW,239,1.0,8.0,74,0.00,BKN,,0.02,WeatherDisplay:10.37,2013-03-19 15:01:00,
2013-03-19 15:16:00,45.0,37.5,29.30,WSW,237,2.0,6.0,75,0.00,BKN,,0.02,WeatherDisplay:10.37,2013-03-19 15:16:00,
2013-03-19 15:31:00,44.7,37.3,29.30,SW,231,2.0,4.0,75,0.00,BKN,,0.02,WeatherDisplay:10.37,2013-03-19 15:31:00,
2013-03-19 15:46:00,44.8,38.0,29.30,WNW,294,2.0,4.0,77,0.00,BKN,,0.02,WeatherDisplay:10.37,2013-03-19 15:46:00,
2013-03-19 16:01:00,45.0,38.5,29.30,WNW,302,0.0,2.0,78,0.00,BKN,,0.02,WeatherDisplay:10.37,2013-03-19 16:01:00,
2013-03-19 16:16:00,45.0,38.9,29.30,NNW,343,0.0,1.0,79,0.00,BKN,,0.02,WeatherDisplay:10.37,2013-03-19 16:16:00,
2013-03-19 16:31:00,45.0,38.8,29.30,East,80,1.0,4.0,79,0.00,BKN,,0.02,WeatherDisplay:10.37,2013-03-19 16:31:00,
2013-03-19 16:46:00,44.7,38.9,29.30,East,95,2.0,4.0,80,0.00,BKN,,0.02,WeatherDisplay:10.37,2013-03-19 16:46:00,
2013-03-19 17:01:00,44.2,38.8,29.31,ESE,115,2.0,5.0,81,0.00,BKN,,0.02,WeatherDisplay:10.37,2013-03-19 17:01:00,
2013-03-19 17:16:00,43.5,38.4,29.31,ESE,112,6.0,7.0,82,0.00,BKN,,0.02,WeatherDisplay:10.37,2013-03-19 17:16:00,
2013-03-19 17:31:00,43.0,38.2,29.31,SE,126,6.0,9.0,83,0.00,BKN,,0.02,WeatherDisplay:10.37,2013-03-19 17:31:00,
2013-03-19 17:46:00,43.0,38.5,29.31,ESE,122,3.0,9.0,84,0.00,BKN,,0.02,WeatherDisplay:10.37,2013-03-19 17:46:00,
2013-03-19 18:01:00,43.0,38.5,29.31,SE,124,3.0,7.0,84,0.00,BKN,,0.02,WeatherDisplay:10.37,2013-03-19 18:01:00,
2013-03-19 18:16:00,42.6,38.1,29.31,ESE,122,2.0,7.0,84,0.00,BKN,,0.02,WeatherDisplay:10.37,2013-03-19 18:16:00,
2013-03-19 18:31:00,42.4,38.2,29.31,ESE,111,3.0,6.0,85,0.00,BKN,,0.02,WeatherDisplay:10.37,2013-03-19 18:31:00,
2013-03-19 19:01:00,41.9,37.7,29.32,NNE,21,0.0,0.0,85,0.00,BKN,,0.02,WeatherDisplay:10.37,2013-03-19 19:01:00,
2013-03-19 19:16:00,41.7,37.5,29.32,NNE,21,0.0,0.0,85,0.00,BKN,,0.02,WeatherDisplay:10.37,2013-03-19 19:16:00,
2013-03-19 19:31:00,41.7,37.5,29.33,NW,316,0.0,1.0,85,0.00,BKN,,0.02,WeatherDisplay:10.37,2013-03-19 19:31:00,
2013-03-19 19:46:00,41.8,37.6,29.33,NNW,337,0.0,1.0,85,0.00,BKN,,0.02,WeatherDisplay:10.37,2013-03-19 19:46:00,
2013-03-19 20:01:00,41.9,37.7,29.34,NNW,338,0.0,0.0,85,0.00,BKN,,0.02,WeatherDisplay:10.37,2013-03-19 20:01:00,
2013-03-19 20:16:00,42.1,37.9,29.34,ENE,71,0.0,0.0,85,0.00,BKN,,0.02,WeatherDisplay:10.37,2013-03-19 20:16:00,
2013-03-19 20:31:00,42.1,38.2,29.35,East,88,0.0,0.0,86,0.00,BKN,,0.02,WeatherDisplay:10.37,2013-03-19 20:31:00,
2013-03-19 20:46:00,42.1,38.2,29.35,ESE,108,0.0,1.0,86,0.00,BKN,,0.02,WeatherDisplay:10.37,2013-03-19 20:46:00,
2013-03-19 21:01:00,42.1,38.2,29.35,ENE,64,0.0,0.0,86,0.00,BKN,,0.02,WeatherDisplay:10.37,2013-03-19 21:01:00,
2013-03-19 21:16:00,41.9,38.0,29.35,East,100,0.0,0.0,86,0.00,BKN,,0.02,WeatherDisplay:10.37,2013-03-19 21:16:00,
2013-03-19 21:31:00,41.9,38.0,29.35,East,98,0.0,0.0,86,0.00,BKN,,0.02,WeatherDisplay:10.37,2013-03-19 21:31:00,
2013-03-19 22:01:00,41.7,37.8,29.36,North,356,2.0,7.0,86,0.00,BKN,,0.02,WeatherDisplay:10.37,2013-03-19 22:01:00,
2013-03-19 23:16:00,41.5,38.0,29.37,NNE,14,3.0,12.0,87,0.04,BKN,,0.06,WeatherDisplay:10.37,2013-03-19 23:16:00,
2013-03-19 23:31:00,41.5,38.0,29.37,NNE,14,2.0,7.0,87,0.04,BKN,,0.06,WeatherDisplay:10.37,2013-03-19 23:31:00,
2013-03-19 23:46:00,41.5,38.0,29.39,North,10,5.0,8.0,87,0.00,BKN,,0.06,WeatherDisplay:10.37,2013-03-19 23:46:00,